This is the latest recevied weather packets stored in our database for station/object HB9FHL-13. If no packets are shown the sender has not sent any weather packets the latest 10 day(s).
| Time | Temp. | Humidity | Pressure | Rain* | Wind** | Luminosity | Snow |
|---|---|---|---|---|---|---|---|
| 1777597382 | 8.33° C | - | 1022.6 hPa | 0 mm | - | - | - |
| 1777597078 | 8.33° C | - | 1025.1 hPa | 0 mm | - | - | - |
| 1777596778 | 8.89° C | - | 1026.9 hPa | 0 mm | - | - | - |
| 1777596477 | 9.44° C | - | 1023.3 hPa | 0 mm | - | - | - |
| 1777596177 | 8.33° C | - | 1025.3 hPa | 0 mm | - | - | - |
| 1777595876 | 8.89° C | - | 1025.7 hPa | 0 mm | - | - | - |
| 1777595576 | 8.89° C | - | 1024.7 hPa | 0 mm | - | - | - |
| 1777595275 | 8.89° C | - | 1022.4 hPa | 0 mm | - | - | - |
| 1777594975 | 8.89° C | - | 1023.5 hPa | 0 mm | - | - | - |
| 1777594776 | 8.89° C | - | 1026.2 hPa | 0 mm | - | - | - |
| 1777594675 | 8.89° C | - | 1026.2 hPa | 0 mm | - | - | - |
| 1777594374 | 9.44° C | - | 1022.6 hPa | 0 mm | - | - | - |
| 1777594072 | 9.44° C | - | 1022.2 hPa | 0 mm | - | - | - |
| 1777593772 | 9.44° C | - | 1024.7 hPa | 0 mm | - | - | - |
| 1777593471 | 9.44° C | - | 1025 hPa | 0 mm | - | - | - |
| 1777593171 | 8.89° C | - | 1021.6 hPa | 0 mm | - | - | - |
| 1777592870 | 8.89° C | - | 1023.1 hPa | 0 mm | - | - | - |
| 1777592570 | 10° C | - | 1026.3 hPa | 0 mm | - | - | - |
| 1777592269 | 9.44° C | - | 1024.7 hPa | 0 mm | - | - | - |
| 1777591970 | 9.44° C | - | 1025.9 hPa | 0 mm | - | - | - |
| 1777591666 | 9.44° C | - | 1023.1 hPa | 0 mm | - | - | - |
| 1777591366 | 9.44° C | - | 1023.2 hPa | 0 mm | - | - | - |
| 1777591065 | 8.89° C | - | 1026 hPa | 0 mm | - | - | - |
| 1777590765 | 9.44° C | - | 1023.8 hPa | 0 mm | - | - | - |
| 1777590464 | 10° C | - | 1020.7 hPa | 0 mm | - | - | - |
* Rain since midnight (hover to see other rain measurements)
** Current wind speed in m/s (hover to see current wind gust speed)